This demonstration page uses our WeatherBlox Daily Observations layout. Learn more.

38.89511, -77.03637

Hourly Observations for March 22, 2015

Temp ( °F °C ) Dew Point ( °F °C ) Humidity (%) Winds ( mph kmh ) Pressure ( in mb ) Visibility ( mi km ) Precip ( " mm )
12:52 am 00:52 Mostly Cloudy 50 10 39 4 67 67 NE 3 6 30 1016 10 16.09344 0 0
1:52 am 01:52 Mostly Cloudy 54 12 39 4 58 58 N 8 13 30.03 1017 10 16.09344 0 0
2:52 am 02:52 Mostly Cloudy 52 11 37 3 58 58 N 15 24 30.03 1017 10 16.09344 0 0
3:52 am 03:52 Mostly Cloudy 48 9 34 1 58 58 NNW 17 28 30.06 1018 10 16.09344 0 0
4:52 am 04:52 Mostly Cloudy 46 8 34 1 62 62 N 9 15 30.06 1018 10 16.09344 0 0
5:52 am 05:52 Mostly Cloudy 46 8 32 0 57 57 N 15 24 30.06 1018 10 16.09344 0 0
6:52 am 06:52 Mostly Cloudy 46 8 30 -1 53 53 N 14 22 30.09 1019 10 16.09344 0 0
7:52 am 07:52 Mostly Cloudy 45 7 28 -2 53 53 N 9 15 30.12 1020 10 16.09344 0 0
8:52 am 08:52 Mostly Cloudy 46 8 28 -2 50 50 N 13 20 30.15 1021 10 16.09344 0 0
9:52 am 09:52 Mostly Cloudy 48 9 28 -2 46 46 NNW 17 28 30.15 1021 10 16.09344 0 0
10:52 am 10:52 Mostly Cloudy 48 9 25 -4 40 40 N 16 26 30.15 1021 10 16.09344 0 0
11:52 am 11:52 Mostly Cloudy 52 11 21 -6 30 30 NNW 14 22 30.15 1021 10 16.09344 0 0
12:52 pm 12:52 Mostly Cloudy 52 11 21 -6 30 30 NNW 13 20 30.15 1021 10 16.09344 0 0
1:52 pm 13:52 Mostly Cloudy 54 12 18 -8 24 24 N 15 24 30.12 1020 10 16.09344 0 0
2:52 pm 14:52 Mostly Cloudy 54 12 19 -7 26 26 N 8 13 30.09 1019 10 16.09344 0 0
3:52 pm 15:52 Mostly Cloudy 55 13 21 -6 26 26 N 9 15 30.09 1019 10 16.09344 0 0
4:52 pm 16:52 Partly Cloudy 55 13 18 -8 23 23 NW 8 13 30.06 1018 10 16.09344 0 0
5:52 pm 17:52 Mostly Cloudy 55 13 18 -8 23 23 N 13 20 30.06 1018 10 16.09344 0 0
6:52 pm 18:52 Mostly Cloudy 54 12 18 -8 24 24 N 9 15 30.06 1018 10 16.09344 0 0
7:52 pm 19:52 Mostly Cloudy 52 11 19 -7 28 28 N 6 9 30.09 1019 10 16.09344 0 0
8:52 pm 20:52 Mostly Cloudy 50 10 18 -8 28 28 N 8 13 30.09 1019 10 16.09344 0 0
9:52 pm 21:52 Partly Cloudy 50 10 19 -7 30 30 NNE 10 17 30.12 1020 10 16.09344 0 0
10:52 pm 22:52 Mostly Cloudy 48 9 19 -7 32 32 N 8 13 30.15 1021 10 16.09344 0 0
11:52 pm 23:52 Mostly Cloudy 46 8 19 -7 34 34 N 9 15 30.15 1021 10 16.09344 0 0

Powered by AerisWeather